owner,sensor,date,latitude,longitude,relative_humidity,qcFlag 
COMPS,ioos:station:USF.COMPS:TAR:1,2014-03-01T00:00:00Z,28.1560,-82.7580,60.15,1111122 
COMPS,ioos:station:USF.COMPS:TAR:1,2014-03-01T00:06:00Z,28.1560,-82.7580,60.73,1111122 
COMPS,ioos:station:USF.COMPS:TAR:1,2014-03-01T00:12:00Z,28.1560,-82.7580,62.37,1111122 
COMPS,ioos:station:USF.COMPS:TAR:1,2014-03-01T00:18:00Z,28.1560,-82.7580,62.94,1111122 
COMPS,ioos:station:USF.COMPS:TAR:1,2014-03-01T00:24:00Z,28.1560,-82.7580,63.09,1111122 
COMPS,ioos:station:USF.COMPS:TAR:1,2014-03-01T00:30:00Z,28.1560,-82.7580,63.39,1111122 
COMPS,ioos:station:USF.COMPS:TAR:1,2014-03-01T00:36:00Z,28.1560,-82.7580,64.19,1111122 
COMPS,ioos:station:USF.COMPS:TAR:1,2014-03-01T00:42:00Z,28.1560,-82.7580,64.3,1111122 
COMPS,ioos:station:USF.COMPS:TAR:1,2014-03-01T00:48:00Z,28.1560,-82.7580,64.05,1111122 
COMPS,ioos:station:USF.COMPS:TAR:1,2014-03-01T00:54:00Z,28.1560,-82.7580,64.93,1111122 
COMPS,ioos:station:USF.COMPS:TAR:1,2014-03-01T01:00:00Z,28.1560,-82.7580,65.64,1111122 
COMPS,ioos:station:USF.COMPS:TAR:1,2014-03-01T01:06:00Z,28.1560,-82.7580,65.8,1111122 
COMPS,ioos:station:USF.COMPS:TAR:1,2014-03-01T01:12:00Z,28.1560,-82.7580,67.45,1111122 
COMPS,ioos:station:USF.COMPS:TAR:1,2014-03-01T01:18:00Z,28.1560,-82.7580,68.8,1111122 
COMPS,ioos:station:USF.COMPS:TAR:1,2014-03-01T01:24:00Z,28.1560,-82.7580,70.4,1111122 
COMPS,ioos:station:USF.COMPS:TAR:1,2014-03-01T01:30:00Z,28.1560,-82.7580,69.37,1111122 
COMPS,ioos:station:USF.COMPS:TAR:1,2014-03-01T01:36:00Z,28.1560,-82.7580,68.98,1111122 
COMPS,ioos:station:USF.COMPS:TAR:1,2014-03-01T01:42:00Z,28.1560,-82.7580,69.06,1111122 
COMPS,ioos:station:USF.COMPS:TAR:1,2014-03-01T01:48:00Z,28.1560,-82.7580,70.3,1111122 
COMPS,ioos:station:USF.COMPS:TAR:1,2014-03-01T01:54:00Z,28.1560,-82.7580,73.19,1111122 
COMPS,ioos:station:USF.COMPS:TAR:1,2014-03-01T02:00:00Z,28.1560,-82.7580,73.48,1111122 
COMPS,ioos:station:USF.COMPS:TAR:1,2014-03-01T02:06:00Z,28.1560,-82.7580,72.43,1111122 
COMPS,ioos:station:USF.COMPS:TAR:1,2014-03-01T02:12:00Z,28.1560,-82.7580,74.26,1111122 
COMPS,ioos:station:USF.COMPS:TAR:1,2014-03-01T02:18:00Z,28.1560,-82.7580,73.96,1111122 
COMPS,ioos:station:USF.COMPS:TAR:1,2014-03-01T02:24:00Z,28.1560,-82.7580,75.48,1111122 
COMPS,ioos:station:USF.COMPS:TAR:1,2014-03-01T02:30:00Z,28.1560,-82.7580,75.39,1111122 
COMPS,ioos:station:USF.COMPS:TAR:1,2014-03-01T02:36:00Z,28.1560,-82.7580,75.82,1111122 
COMPS,ioos:station:USF.COMPS:TAR:1,2014-03-01T02:42:00Z,28.1560,-82.7580,77.36,1111122 
COMPS,ioos:station:USF.COMPS:TAR:1,2014-03-01T02:48:00Z,28.1560,-82.7580,77.14,1111122 
COMPS,ioos:station:USF.COMPS:TAR:1,2014-03-01T02:54:00Z,28.1560,-82.7580,76.95,1111122 
COMPS,ioos:station:USF.COMPS:TAR:1,2014-03-01T03:00:00Z,28.1560,-82.7580,77.62,1111122 
COMPS,ioos:station:USF.COMPS:TAR:1,2014-03-01T03:06:00Z,28.1560,-82.7580,79.19,1111122 
COMPS,ioos:station:USF.COMPS:TAR:1,2014-03-01T03:12:00Z,28.1560,-82.7580,80.83,1111122 
COMPS,ioos:station:USF.COMPS:TAR:1,2014-03-01T03:18:00Z,28.1560,-82.7580,80.54,1111122 
COMPS,ioos:station:USF.COMPS:TAR:1,2014-03-01T03:24:00Z,28.1560,-82.7580,82.75,1111122 
COMPS,ioos:station:USF.COMPS:TAR:1,2014-03-01T03:30:00Z,28.1560,-82.7580,79.79,1111122 
COMPS,ioos:station:USF.COMPS:TAR:1,2014-03-01T03:36:00Z,28.1560,-82.7580,78.34,1111122 
COMPS,ioos:station:USF.COMPS:TAR:1,2014-03-01T03:42:00Z,28.1560,-82.7580,78.31,1111122 
COMPS,ioos:station:USF.COMPS:TAR:1,2014-03-01T03:48:00Z,28.1560,-82.7580,80.2,1111122 
COMPS,ioos:station:USF.COMPS:TAR:1,2014-03-01T03:54:00Z,28.1560,-82.7580,82.05,1111122 
COMPS,ioos:station:USF.COMPS:TAR:1,2014-03-01T04:00:00Z,28.1560,-82.7580,82.37,1111122 
COMPS,ioos:station:USF.COMPS:TAR:1,2014-03-01T04:06:00Z,28.1560,-82.7580,81.36,1111122 
COMPS,ioos:station:USF.COMPS:TAR:1,2014-03-01T04:12:00Z,28.1560,-82.7580,82.19,1111122 
COMPS,ioos:station:USF.COMPS:TAR:1,2014-03-01T04:18:00Z,28.1560,-82.7580,82.49,1111122 
COMPS,ioos:station:USF.COMPS:TAR:1,2014-03-01T04:24:00Z,28.1560,-82.7580,82.29,1111122 
COMPS,ioos:station:USF.COMPS:TAR:1,2014-03-01T04:30:00Z,28.1560,-82.7580,82.8,1111122 
COMPS,ioos:station:USF.COMPS:TAR:1,2014-03-01T04:36:00Z,28.1560,-82.7580,82.28,1111122 
COMPS,ioos:station:USF.COMPS:TAR:1,2014-03-01T04:42:00Z,28.1560,-82.7580,83.05,1111122 
COMPS,ioos:station:USF.COMPS:TAR:1,2014-03-01T04:48:00Z,28.1560,-82.7580,81.89,1111122 
COMPS,ioos:station:USF.COMPS:TAR:1,2014-03-01T04:54:00Z,28.1560,-82.7580,82.47,1111122 
COMPS,ioos:station:USF.COMPS:TAR:1,2014-03-01T05:00:00Z,28.1560,-82.7580,82.55,1111122 
COMPS,ioos:station:USF.COMPS:TAR:1,2014-03-01T05:06:00Z,28.1560,-82.7580,82.87,1111122 
COMPS,ioos:station:USF.COMPS:TAR:1,2014-03-01T05:12:00Z,28.1560,-82.7580,81.75,1111122 
COMPS,ioos:station:USF.COMPS:TAR:1,2014-03-01T05:18:00Z,28.1560,-82.7580,81.22,1111122 
COMPS,ioos:station:USF.COMPS:TAR:1,2014-03-01T05:24:00Z,28.1560,-82.7580,80.83,1111122 
COMPS,ioos:station:USF.COMPS:TAR:1,2014-03-01T05:30:00Z,28.1560,-82.7580,80.04,1111122 
COMPS,ioos:station:USF.COMPS:TAR:1,2014-03-01T05:36:00Z,28.1560,-82.7580,79.17,1111122 
COMPS,ioos:station:USF.COMPS:TAR:1,2014-03-01T05:42:00Z,28.1560,-82.7580,79.1,1111122 
COMPS,ioos:station:USF.COMPS:TAR:1,2014-03-01T05:48:00Z,28.1560,-82.7580,79.82,1111122 
COMPS,ioos:station:USF.COMPS:TAR:1,2014-03-01T05:54:00Z,28.1560,-82.7580,79.24,1111122 
COMPS,ioos:station:USF.COMPS:TAR:1,2014-03-01T06:00:00Z,28.1560,-82.7580,79.64,1111122 
COMPS,ioos:station:USF.COMPS:TAR:1,2014-03-01T06:06:00Z,28.1560,-82.7580,79.53,1111122 
COMPS,ioos:station:USF.COMPS:TAR:1,2014-03-01T06:12:00Z,28.1560,-82.7580,78.97,1111122 
COMPS,ioos:station:USF.COMPS:TAR:1,2014-03-01T06:18:00Z,28.1560,-82.7580,78.84,1111122 
COMPS,ioos:station:USF.COMPS:TAR:1,2014-03-01T06:24:00Z,28.1560,-82.7580,79.54,1111122 
COMPS,ioos:station:USF.COMPS:TAR:1,2014-03-01T06:30:00Z,28.1560,-82.7580,80.25,1111122 
COMPS,ioos:station:USF.COMPS:TAR:1,2014-03-01T06:36:00Z,28.1560,-82.7580,80.48,1111122 
COMPS,ioos:station:USF.COMPS:TAR:1,2014-03-01T06:42:00Z,28.1560,-82.7580,80.52,1111122 
COMPS,ioos:station:USF.COMPS:TAR:1,2014-03-01T06:48:00Z,28.1560,-82.7580,80.78,1111122 
COMPS,ioos:station:USF.COMPS:TAR:1,2014-03-01T06:54:00Z,28.1560,-82.7580,81.46,1111122 
COMPS,ioos:station:USF.COMPS:TAR:1,2014-03-01T07:00:00Z,28.1560,-82.7580,82.37,1111122 
COMPS,ioos:station:USF.COMPS:TAR:1,2014-03-01T07:06:00Z,28.1560,-82.7580,83.35,1111122 
COMPS,ioos:station:USF.COMPS:TAR:1,2014-03-01T07:12:00Z,28.1560,-82.7580,83.9,1111122 
COMPS,ioos:station:USF.COMPS:TAR:1,2014-03-01T07:18:00Z,28.1560,-82.7580,84.62,1111122 
COMPS,ioos:station:USF.COMPS:TAR:1,2014-03-01T07:24:00Z,28.1560,-82.7580,85.2,1111122 
COMPS,ioos:station:USF.COMPS:TAR:1,2014-03-01T07:30:00Z,28.1560,-82.7580,85.62,1111122 
COMPS,ioos:station:USF.COMPS:TAR:1,2014-03-01T07:36:00Z,28.1560,-82.7580,84.61,1111122 
COMPS,ioos:station:USF.COMPS:TAR:1,2014-03-01T07:42:00Z,28.1560,-82.7580,84.12,1111122 
COMPS,ioos:station:USF.COMPS:TAR:1,2014-03-01T07:48:00Z,28.1560,-82.7580,84.19,1111122 
COMPS,ioos:station:USF.COMPS:TAR:1,2014-03-01T07:54:00Z,28.1560,-82.7580,83.92,1111122 
COMPS,ioos:station:USF.COMPS:TAR:1,2014-03-01T08:00:00Z,28.1560,-82.7580,83.61,1111122 
COMPS,ioos:station:USF.COMPS:TAR:1,2014-03-01T08:06:00Z,28.1560,-82.7580,84.06,1111122 
COMPS,ioos:station:USF.COMPS:TAR:1,2014-03-01T08:12:00Z,28.1560,-82.7580,84.32,1111122 
COMPS,ioos:station:USF.COMPS:TAR:1,2014-03-01T08:18:00Z,28.1560,-82.7580,84.39,1111122 
COMPS,ioos:station:USF.COMPS:TAR:1,2014-03-01T08:24:00Z,28.1560,-82.7580,84.48,1111122 
COMPS,ioos:station:USF.COMPS:TAR:1,2014-03-01T08:30:00Z,28.1560,-82.7580,83.89,1111122 
COMPS,ioos:station:USF.COMPS:TAR:1,2014-03-01T08:36:00Z,28.1560,-82.7580,83.86,1111122 
COMPS,ioos:station:USF.COMPS:TAR:1,2014-03-01T08:42:00Z,28.1560,-82.7580,84.31,1111122 
COMPS,ioos:station:USF.COMPS:TAR:1,2014-03-01T08:48:00Z,28.1560,-82.7580,84.91,1111122 
COMPS,ioos:station:USF.COMPS:TAR:1,2014-03-01T08:54:00Z,28.1560,-82.7580,85.44,1111122 
COMPS,ioos:station:USF.COMPS:TAR:1,2014-03-01T09:00:00Z,28.1560,-82.7580,85.92,1111122 
COMPS,ioos:station:USF.COMPS:TAR:1,2014-03-01T09:06:00Z,28.1560,-82.7580,86.5,1111122 
COMPS,ioos:station:USF.COMPS:TAR:1,2014-03-01T09:12:00Z,28.1560,-82.7580,86.59,1111122 
COMPS,ioos:station:USF.COMPS:TAR:1,2014-03-01T09:18:00Z,28.1560,-82.7580,86.25,1111122 
COMPS,ioos:station:USF.COMPS:TAR:1,2014-03-01T09:24:00Z,28.1560,-82.7580,85.77,1111122 
COMPS,ioos:station:USF.COMPS:TAR:1,2014-03-01T09:30:00Z,28.1560,-82.7580,85.64,1111122 
COMPS,ioos:station:USF.COMPS:TAR:1,2014-03-01T09:36:00Z,28.1560,-82.7580,86.51,1111122 
COMPS,ioos:station:USF.COMPS:TAR:1,2014-03-01T09:42:00Z,28.1560,-82.7580,87.66,1111122 
COMPS,ioos:station:USF.COMPS:TAR:1,2014-03-01T09:48:00Z,28.1560,-82.7580,88.22,1111122 
COMPS,ioos:station:USF.COMPS:TAR:1,2014-03-01T09:54:00Z,28.1560,-82.7580,88.15,1111122 
COMPS,ioos:station:USF.COMPS:TAR:1,2014-03-01T10:00:00Z,28.1560,-82.7580,88.14,1111122 
COMPS,ioos:station:USF.COMPS:TAR:1,2014-03-01T10:06:00Z,28.1560,-82.7580,87.87,1111122 
COMPS,ioos:station:USF.COMPS:TAR:1,2014-03-01T10:12:00Z,28.1560,-82.7580,87.12,1111122 
COMPS,ioos:station:USF.COMPS:TAR:1,2014-03-01T10:18:00Z,28.1560,-82.7580,86.78,1111122 
COMPS,ioos:station:USF.COMPS:TAR:1,2014-03-01T10:24:00Z,28.1560,-82.7580,87.52,1111122 
COMPS,ioos:station:USF.COMPS:TAR:1,2014-03-01T10:30:00Z,28.1560,-82.7580,87.77,1111122 
COMPS,ioos:station:USF.COMPS:TAR:1,2014-03-01T10:36:00Z,28.1560,-82.7580,86.99,1111122 
COMPS,ioos:station:USF.COMPS:TAR:1,2014-03-01T10:42:00Z,28.1560,-82.7580,87.34,1111122 
COMPS,ioos:station:USF.COMPS:TAR:1,2014-03-01T10:48:00Z,28.1560,-82.7580,87.89,1111122 
COMPS,ioos:station:USF.COMPS:TAR:1,2014-03-01T10:54:00Z,28.1560,-82.7580,87.29,1111122 
COMPS,ioos:station:USF.COMPS:TAR:1,2014-03-01T11:00:00Z,28.1560,-82.7580,86.76,1111122 
COMPS,ioos:station:USF.COMPS:TAR:1,2014-03-01T11:06:00Z,28.1560,-82.7580,87.1,1111122 
COMPS,ioos:station:USF.COMPS:TAR:1,2014-03-01T11:12:00Z,28.1560,-82.7580,88.43,1111122 
COMPS,ioos:station:USF.COMPS:TAR:1,2014-03-01T11:18:00Z,28.1560,-82.7580,88.5,1111122 
COMPS,ioos:station:USF.COMPS:TAR:1,2014-03-01T11:24:00Z,28.1560,-82.7580,88.42,1111122 
COMPS,ioos:station:USF.COMPS:TAR:1,2014-03-01T11:30:00Z,28.1560,-82.7580,87.65,1111122 
COMPS,ioos:station:USF.COMPS:TAR:1,2014-03-01T11:36:00Z,28.1560,-82.7580,88.26,1111122 
COMPS,ioos:station:USF.COMPS:TAR:1,2014-03-01T11:42:00Z,28.1560,-82.7580,88.78,1111122 
COMPS,ioos:station:USF.COMPS:TAR:1,2014-03-01T11:48:00Z,28.1560,-82.7580,89.96,1111122 
COMPS,ioos:station:USF.COMPS:TAR:1,2014-03-01T11:54:00Z,28.1560,-82.7580,89.93,1111122 
COMPS,ioos:station:USF.COMPS:TAR:1,2014-03-01T12:00:00Z,28.1560,-82.7580,89.42,1111122 
COMPS,ioos:station:USF.COMPS:TAR:1,2014-03-01T12:06:00Z,28.1560,-82.7580,89.09,1111122 
COMPS,ioos:station:USF.COMPS:TAR:1,2014-03-01T12:12:00Z,28.1560,-82.7580,88.56,1111122 
COMPS,ioos:station:USF.COMPS:TAR:1,2014-03-01T12:18:00Z,28.1560,-82.7580,86.18,1111122 
COMPS,ioos:station:USF.COMPS:TAR:1,2014-03-01T12:24:00Z,28.1560,-82.7580,84.71,1111122 
COMPS,ioos:station:USF.COMPS:TAR:1,2014-03-01T12:30:00Z,28.1560,-82.7580,84.93,1111122 
COMPS,ioos:station:USF.COMPS:TAR:1,2014-03-01T12:36:00Z,28.1560,-82.7580,81.16,1111122 
COMPS,ioos:station:USF.COMPS:TAR:1,2014-03-01T12:42:00Z,28.1560,-82.7580,79.62,1111122 
COMPS,ioos:station:USF.COMPS:TAR:1,2014-03-01T12:48:00Z,28.1560,-82.7580,77.57,1111122 
COMPS,ioos:station:USF.COMPS:TAR:1,2014-03-01T12:54:00Z,28.1560,-82.7580,73.91,1111122 
COMPS,ioos:station:USF.COMPS:TAR:1,2014-03-01T13:00:00Z,28.1560,-82.7580,73.31,1111122 
COMPS,ioos:station:USF.COMPS:TAR:1,2014-03-01T13:06:00Z,28.1560,-82.7580,71.56,1111122 
COMPS,ioos:station:USF.COMPS:TAR:1,2014-03-01T13:12:00Z,28.1560,-82.7580,72.23,1111122 
COMPS,ioos:station:USF.COMPS:TAR:1,2014-03-01T13:18:00Z,28.1560,-82.7580,71.72,1111122 
COMPS,ioos:station:USF.COMPS:TAR:1,2014-03-01T13:24:00Z,28.1560,-82.7580,69.96,1111122 
COMPS,ioos:station:USF.COMPS:TAR:1,2014-03-01T13:30:00Z,28.1560,-82.7580,68.45,1111122 
COMPS,ioos:station:USF.COMPS:TAR:1,2014-03-01T13:36:00Z,28.1560,-82.7580,71.04,1111122 
COMPS,ioos:station:USF.COMPS:TAR:1,2014-03-01T13:42:00Z,28.1560,-82.7580,71.06,1111122 
COMPS,ioos:station:USF.COMPS:TAR:1,2014-03-01T13:48:00Z,28.1560,-82.7580,68.62,1111122 
COMPS,ioos:station:USF.COMPS:TAR:1,2014-03-01T13:54:00Z,28.1560,-82.7580,69.18,1111122 
COMPS,ioos:station:USF.COMPS:TAR:1,2014-03-01T14:00:00Z,28.1560,-82.7580,69.48,1111122 
COMPS,ioos:station:USF.COMPS:TAR:1,2014-03-01T14:06:00Z,28.1560,-82.7580,64.9,1111122 
COMPS,ioos:station:USF.COMPS:TAR:1,2014-03-01T14:12:00Z,28.1560,-82.7580,65.29,1111122 
COMPS,ioos:station:USF.COMPS:TAR:1,2014-03-01T14:18:00Z,28.1560,-82.7580,62.53,1111122 
COMPS,ioos:station:USF.COMPS:TAR:1,2014-03-01T14:24:00Z,28.1560,-82.7580,64.29,1111122 
COMPS,ioos:station:USF.COMPS:TAR:1,2014-03-01T14:30:00Z,28.1560,-82.7580,61.03,1111122 
COMPS,ioos:station:USF.COMPS:TAR:1,2014-03-01T14:36:00Z,28.1560,-82.7580,58.38,1111122 
COMPS,ioos:station:USF.COMPS:TAR:1,2014-03-01T14:42:00Z,28.1560,-82.7580,53.23,1111122 
COMPS,ioos:station:USF.COMPS:TAR:1,2014-03-01T14:48:00Z,28.1560,-82.7580,52.45,1111122 
COMPS,ioos:station:USF.COMPS:TAR:1,2014-03-01T14:54:00Z,28.1560,-82.7580,56.3,1111122 
COMPS,ioos:station:USF.COMPS:TAR:1,2014-03-01T15:00:00Z,28.1560,-82.7580,51.7,1111122 
COMPS,ioos:station:USF.COMPS:TAR:1,2014-03-01T15:06:00Z,28.1560,-82.7580,50.58,1111122 
COMPS,ioos:station:USF.COMPS:TAR:1,2014-03-01T15:12:00Z,28.1560,-82.7580,51.07,1111122 
COMPS,ioos:station:USF.COMPS:TAR:1,2014-03-01T15:18:00Z,28.1560,-82.7580,48.29,1111122 
COMPS,ioos:station:USF.COMPS:TAR:1,2014-03-01T15:24:00Z,28.1560,-82.7580,48.04,1111122 
COMPS,ioos:station:USF.COMPS:TAR:1,2014-03-01T15:30:00Z,28.1560,-82.7580,46.54,1111122 
COMPS,ioos:station:USF.COMPS:TAR:1,2014-03-01T15:36:00Z,28.1560,-82.7580,46.27,1111122 
COMPS,ioos:station:USF.COMPS:TAR:1,2014-03-01T15:42:00Z,28.1560,-82.7580,41.62,1111122 
COMPS,ioos:station:USF.COMPS:TAR:1,2014-03-01T15:48:00Z,28.1560,-82.7580,39.07,1111122 
COMPS,ioos:station:USF.COMPS:TAR:1,2014-03-01T15:54:00Z,28.1560,-82.7580,37.49,1111122 
COMPS,ioos:station:USF.COMPS:TAR:1,2014-03-01T16:00:00Z,28.1560,-82.7580,33.22,1111122 
COMPS,ioos:station:USF.COMPS:TAR:1,2014-03-01T16:06:00Z,28.1560,-82.7580,33.31,1111122 
COMPS,ioos:station:USF.COMPS:TAR:1,2014-03-01T16:12:00Z,28.1560,-82.7580,32.34,1111122 
COMPS,ioos:station:USF.COMPS:TAR:1,2014-03-01T16:18:00Z,28.1560,-82.7580,34.08,1111122 
COMPS,ioos:station:USF.COMPS:TAR:1,2014-03-01T16:24:00Z,28.1560,-82.7580,35.17,1111122 
COMPS,ioos:station:USF.COMPS:TAR:1,2014-03-01T16:30:00Z,28.1560,-82.7580,33.72,1111122 
COMPS,ioos:station:USF.COMPS:TAR:1,2014-03-01T16:36:00Z,28.1560,-82.7580,34.09,1111122 
COMPS,ioos:station:USF.COMPS:TAR:1,2014-03-01T16:42:00Z,28.1560,-82.7580,35.62,1111122 
COMPS,ioos:station:USF.COMPS:TAR:1,2014-03-01T16:48:00Z,28.1560,-82.7580,37.34,1111122 
COMPS,ioos:station:USF.COMPS:TAR:1,2014-03-01T16:54:00Z,28.1560,-82.7580,35.75,1111122 
COMPS,ioos:station:USF.COMPS:TAR:1,2014-03-01T17:00:00Z,28.1560,-82.7580,37.98,1111122 
COMPS,ioos:station:USF.COMPS:TAR:1,2014-03-01T17:06:00Z,28.1560,-82.7580,36.72,1111122 
COMPS,ioos:station:USF.COMPS:TAR:1,2014-03-01T17:12:00Z,28.1560,-82.7580,36.24,1111122 
COMPS,ioos:station:USF.COMPS:TAR:1,2014-03-01T17:18:00Z,28.1560,-82.7580,36.8,1111122 
COMPS,ioos:station:USF.COMPS:TAR:1,2014-03-01T17:24:00Z,28.1560,-82.7580,35.88,1111122 
COMPS,ioos:station:USF.COMPS:TAR:1,2014-03-01T17:30:00Z,28.1560,-82.7580,35.77,1111122 
COMPS,ioos:station:USF.COMPS:TAR:1,2014-03-01T17:36:00Z,28.1560,-82.7580,36.57,1111122 
COMPS,ioos:station:USF.COMPS:TAR:1,2014-03-01T17:42:00Z,28.1560,-82.7580,37.63,1111122 
COMPS,ioos:station:USF.COMPS:TAR:1,2014-03-01T17:48:00Z,28.1560,-82.7580,37.09,1111122 
COMPS,ioos:station:USF.COMPS:TAR:1,2014-03-01T17:54:00Z,28.1560,-82.7580,37.01,1111122 
COMPS,ioos:station:USF.COMPS:TAR:1,2014-03-01T18:00:00Z,28.1560,-82.7580,37.64,1111122 
COMPS,ioos:station:USF.COMPS:TAR:1,2014-03-01T18:06:00Z,28.1560,-82.7580,37.65,1111122 
COMPS,ioos:station:USF.COMPS:TAR:1,2014-03-01T18:12:00Z,28.1560,-82.7580,35.25,1111122 
COMPS,ioos:station:USF.COMPS:TAR:1,2014-03-01T18:18:00Z,28.1560,-82.7580,35.58,1111122 
COMPS,ioos:station:USF.COMPS:TAR:1,2014-03-01T18:24:00Z,28.1560,-82.7580,36.56,1111122 
COMPS,ioos:station:USF.COMPS:TAR:1,2014-03-01T18:30:00Z,28.1560,-82.7580,36.7,1111122 
COMPS,ioos:station:USF.COMPS:TAR:1,2014-03-01T18:36:00Z,28.1560,-82.7580,36.12,1111122 
COMPS,ioos:station:USF.COMPS:TAR:1,2014-03-01T18:42:00Z,28.1560,-82.7580,38.05,1111122 
COMPS,ioos:station:USF.COMPS:TAR:1,2014-03-01T18:48:00Z,28.1560,-82.7580,37.33,1111122 
COMPS,ioos:station:USF.COMPS:TAR:1,2014-03-01T18:54:00Z,28.1560,-82.7580,37.36,1111122 
COMPS,ioos:station:USF.COMPS:TAR:1,2014-03-01T19:00:00Z,28.1560,-82.7580,38.64,1111122 
COMPS,ioos:station:USF.COMPS:TAR:1,2014-03-01T19:06:00Z,28.1560,-82.7580,39.27,1111122 
COMPS,ioos:station:USF.COMPS:TAR:1,2014-03-01T19:12:00Z,28.1560,-82.7580,42.3,1111122 
COMPS,ioos:station:USF.COMPS:TAR:1,2014-03-01T19:18:00Z,28.1560,-82.7580,40.99,1111122 
COMPS,ioos:station:USF.COMPS:TAR:1,2014-03-01T19:24:00Z,28.1560,-82.7580,41.46,1111122 
COMPS,ioos:station:USF.COMPS:TAR:1,2014-03-01T19:30:00Z,28.1560,-82.7580,41.09,1111122 
COMPS,ioos:station:USF.COMPS:TAR:1,2014-03-01T19:36:00Z,28.1560,-82.7580,40.95,1111122 
COMPS,ioos:station:USF.COMPS:TAR:1,2014-03-01T19:42:00Z,28.1560,-82.7580,37.56,1111122 
COMPS,ioos:station:USF.COMPS:TAR:1,2014-03-01T19:48:00Z,28.1560,-82.7580,39.37,1111122 
COMPS,ioos:station:USF.COMPS:TAR:1,2014-03-01T19:54:00Z,28.1560,-82.7580,39.45,1111122 
COMPS,ioos:station:USF.COMPS:TAR:1,2014-03-01T20:00:00Z,28.1560,-82.7580,38.71,1111122 
COMPS,ioos:station:USF.COMPS:TAR:1,2014-03-01T20:06:00Z,28.1560,-82.7580,38.53,1111122 
COMPS,ioos:station:USF.COMPS:TAR:1,2014-03-01T20:12:00Z,28.1560,-82.7580,38.76,1111122 
COMPS,ioos:station:USF.COMPS:TAR:1,2014-03-01T20:18:00Z,28.1560,-82.7580,39.26,1111122 
COMPS,ioos:station:USF.COMPS:TAR:1,2014-03-01T20:24:00Z,28.1560,-82.7580,39.71,1111122 
COMPS,ioos:station:USF.COMPS:TAR:1,2014-03-01T20:30:00Z,28.1560,-82.7580,40.04,1111122 
COMPS,ioos:station:USF.COMPS:TAR:1,2014-03-01T20:36:00Z,28.1560,-82.7580,41.65,1111122 
COMPS,ioos:station:USF.COMPS:TAR:1,2014-03-01T20:42:00Z,28.1560,-82.7580,41.49,1111122 
COMPS,ioos:station:USF.COMPS:TAR:1,2014-03-01T20:48:00Z,28.1560,-82.7580,44.32,1111122 
COMPS,ioos:station:USF.COMPS:TAR:1,2014-03-01T20:54:00Z,28.1560,-82.7580,40.88,1111122 
COMPS,ioos:station:USF.COMPS:TAR:1,2014-03-01T21:00:00Z,28.1560,-82.7580,44.37,1111122 
COMPS,ioos:station:USF.COMPS:TAR:1,2014-03-01T21:06:00Z,28.1560,-82.7580,44.46,1111122 
COMPS,ioos:station:USF.COMPS:TAR:1,2014-03-01T21:12:00Z,28.1560,-82.7580,44.3,1111122 
COMPS,ioos:station:USF.COMPS:TAR:1,2014-03-01T21:18:00Z,28.1560,-82.7580,44.82,1111122 
COMPS,ioos:station:USF.COMPS:TAR:1,2014-03-01T21:24:00Z,28.1560,-82.7580,43.59,1111122 
COMPS,ioos:station:USF.COMPS:TAR:1,2014-03-01T21:30:00Z,28.1560,-82.7580,42.25,1111122 
COMPS,ioos:station:USF.COMPS:TAR:1,2014-03-01T21:36:00Z,28.1560,-82.7580,43.91,1111122 
COMPS,ioos:station:USF.COMPS:TAR:1,2014-03-01T21:42:00Z,28.1560,-82.7580,45.44,1111122 
COMPS,ioos:station:USF.COMPS:TAR:1,2014-03-01T21:48:00Z,28.1560,-82.7580,44.76,1111122 
COMPS,ioos:station:USF.COMPS:TAR:1,2014-03-01T21:54:00Z,28.1560,-82.7580,44.25,1111122 
COMPS,ioos:station:USF.COMPS:TAR:1,2014-03-01T22:00:00Z,28.1560,-82.7580,42.44,1111122 
COMPS,ioos:station:USF.COMPS:TAR:1,2014-03-01T22:06:00Z,28.1560,-82.7580,43.17,1111122 
COMPS,ioos:station:USF.COMPS:TAR:1,2014-03-01T22:12:00Z,28.1560,-82.7580,44.02,1111122 
COMPS,ioos:station:USF.COMPS:TAR:1,2014-03-01T22:18:00Z,28.1560,-82.7580,42.4,1111122 
COMPS,ioos:station:USF.COMPS:TAR:1,2014-03-01T22:24:00Z,28.1560,-82.7580,42.05,1111122 
COMPS,ioos:station:USF.COMPS:TAR:1,2014-03-01T22:30:00Z,28.1560,-82.7580,42.51,1111122 
COMPS,ioos:station:USF.COMPS:TAR:1,2014-03-01T22:36:00Z,28.1560,-82.7580,43.72,1111122 
COMPS,ioos:station:USF.COMPS:TAR:1,2014-03-01T22:42:00Z,28.1560,-82.7580,42.96,1111122 
COMPS,ioos:station:USF.COMPS:TAR:1,2014-03-01T22:48:00Z,28.1560,-82.7580,46.74,1111122 
COMPS,ioos:station:USF.COMPS:TAR:1,2014-03-01T22:54:00Z,28.1560,-82.7580,49.53,1111122 
COMPS,ioos:station:USF.COMPS:TAR:1,2014-03-01T23:00:00Z,28.1560,-82.7580,51.59,1111122 
COMPS,ioos:station:USF.COMPS:TAR:1,2014-03-01T23:06:00Z,28.1560,-82.7580,53.08,1111122 
COMPS,ioos:station:USF.COMPS:TAR:1,2014-03-01T23:12:00Z,28.1560,-82.7580,53.72,1111122 
COMPS,ioos:station:USF.COMPS:TAR:1,2014-03-01T23:18:00Z,28.1560,-82.7580,54.06,1111122 
COMPS,ioos:station:USF.COMPS:TAR:1,2014-03-01T23:24:00Z,28.1560,-82.7580,55.31,1111122 
COMPS,ioos:station:USF.COMPS:TAR:1,2014-03-01T23:30:00Z,28.1560,-82.7580,57.41,1111122 
COMPS,ioos:station:USF.COMPS:TAR:1,2014-03-01T23:36:00Z,28.1560,-82.7580,58.99,1111122 
COMPS,ioos:station:USF.COMPS:TAR:1,2014-03-01T23:42:00Z,28.1560,-82.7580,60.4,1111122 
COMPS,ioos:station:USF.COMPS:TAR:1,2014-03-01T23:48:00Z,28.1560,-82.7580,61.68,1111122 
COMPS,ioos:station:USF.COMPS:TAR:1,2014-03-01T23:54:00Z,28.1560,-82.7580,62.79,1111122 
COMPS,ioos:station:USF.COMPS:TAR:1,2014-03-02T00:00:00Z,28.1560,-82.7580,64.62,1111122 
COMPS,ioos:station:USF.COMPS:TAR:1,2014-03-02T00:06:00Z,28.1560,-82.7580,66.47,1111122 
COMPS,ioos:station:USF.COMPS:TAR:1,2014-03-02T00:12:00Z,28.1560,-82.7580,67.51,1111122 
COMPS,ioos:station:USF.COMPS:TAR:1,2014-03-02T00:18:00Z,28.1560,-82.7580,68.71,1111122 
COMPS,ioos:station:USF.COMPS:TAR:1,2014-03-02T00:24:00Z,28.1560,-82.7580,70.62,1111122 
COMPS,ioos:station:USF.COMPS:TAR:1,2014-03-02T00:30:00Z,28.1560,-82.7580,72.1,1111122 
COMPS,ioos:station:USF.COMPS:TAR:1,2014-03-02T00:36:00Z,28.1560,-82.7580,72.19,1111122 
COMPS,ioos:station:USF.COMPS:TAR:1,2014-03-02T00:42:00Z,28.1560,-82.7580,72.95,1111122 
COMPS,ioos:station:USF.COMPS:TAR:1,2014-03-02T00:48:00Z,28.1560,-82.7580,74.5,1111122 
COMPS,ioos:station:USF.COMPS:TAR:1,2014-03-02T00:54:00Z,28.1560,-82.7580,74.63,1111122 
COMPS,ioos:station:USF.COMPS:TAR:1,2014-03-02T01:00:00Z,28.1560,-82.7580,75.92,1111122 
COMPS,ioos:station:USF.COMPS:TAR:1,2014-03-02T01:06:00Z,28.1560,-82.7580,76.36,1111122 
COMPS,ioos:station:USF.COMPS:TAR:1,2014-03-02T01:12:00Z,28.1560,-82.7580,77.26,1111122 
COMPS,ioos:station:USF.COMPS:TAR:1,2014-03-02T01:18:00Z,28.1560,-82.7580,77.95,1111122 
COMPS,ioos:station:USF.COMPS:TAR:1,2014-03-02T01:24:00Z,28.1560,-82.7580,78.39,1111122 
COMPS,ioos:station:USF.COMPS:TAR:1,2014-03-02T01:30:00Z,28.1560,-82.7580,79.3,1111122 
COMPS,ioos:station:USF.COMPS:TAR:1,2014-03-02T01:36:00Z,28.1560,-82.7580,79.96,1111122 
COMPS,ioos:station:USF.COMPS:TAR:1,2014-03-02T01:42:00Z,28.1560,-82.7580,80.2,1111122 
COMPS,ioos:station:USF.COMPS:TAR:1,2014-03-02T01:48:00Z,28.1560,-82.7580,80.63,1111122 
COMPS,ioos:station:USF.COMPS:TAR:1,2014-03-02T01:54:00Z,28.1560,-82.7580,80.77,1111122 
COMPS,ioos:station:USF.COMPS:TAR:1,2014-03-02T02:00:00Z,28.1560,-82.7580,80.34,1111122 
COMPS,ioos:station:USF.COMPS:TAR:1,2014-03-02T02:06:00Z,28.1560,-82.7580,80.56,1111122 
COMPS,ioos:station:USF.COMPS:TAR:1,2014-03-02T02:12:00Z,28.1560,-82.7580,80.34,1111122 
COMPS,ioos:station:USF.COMPS:TAR:1,2014-03-02T02:18:00Z,28.1560,-82.7580,80.43,1111122 
COMPS,ioos:station:USF.COMPS:TAR:1,2014-03-02T02:24:00Z,28.1560,-82.7580,81.29,1111122 
COMPS,ioos:station:USF.COMPS:TAR:1,2014-03-02T02:30:00Z,28.1560,-82.7580,81.76,1111122 
COMPS,ioos:station:USF.COMPS:TAR:1,2014-03-02T02:36:00Z,28.1560,-82.7580,82.0,1111122 
COMPS,ioos:station:USF.COMPS:TAR:1,2014-03-02T02:42:00Z,28.1560,-82.7580,81.82,1111122 
COMPS,ioos:station:USF.COMPS:TAR:1,2014-03-02T02:48:00Z,28.1560,-82.7580,82.47,1111122 
COMPS,ioos:station:USF.COMPS:TAR:1,2014-03-02T02:54:00Z,28.1560,-82.7580,82.92,1111122 
COMPS,ioos:station:USF.COMPS:TAR:1,2014-03-02T03:00:00Z,28.1560,-82.7580,83.8,1111122 
COMPS,ioos:station:USF.COMPS:TAR:1,2014-03-02T03:06:00Z,28.1560,-82.7580,84.97,1111122 